Location: *
(13.2257°S, 48.7193°W)
Time: 09:56:47
(UTC+00:00)

CZ-4C R/B - Pass Details

Date: 13 February 2026
Orbit: 480 x 1497 km, 63.4° (Epoch: 11 March)

Event Time Altitude Azimuth Distance (km) Brightness Sun altitude
Exits shadow 08:20:31 14° 304° (NW) 3,310 4.7 -13.1°
Maximum altitude 08:27:40 38° 244° (WSW) 2,107 3.9 -11.4°
Drops below altitude 10° 08:35:33 10° 179° (S) 3,410 5.6 -9.6°
Sets 08:38:33 0° 170° (S) 4,268 6.2 -8.9°
